Miscellaneous Local Product
Issued by NWS North Platte, NE

Home | Current Version | Previous Version | Graphics & Text | Print | Product List | Glossary On
Versions: 1 2 3 4 5 6 7 8 9 10 11 12 13 14 15 16 17 18 19 20 21 22 23 24 25 26 27 28 29 30 31 32 33 34 35 36 37 38 39 40 41 42 43 44 45 46 47 48 49 50
688
AXUS43 KLBF 300610
MISLBF


WESTERN AND NORTH CENTRAL NEBRASKA HOURLY WEATHER ROUNDUP
NATIONAL WEATHER SERVICE NORTH PLATTE NE
100 AM CDT MON MAY 30 2016

NOTE: "FAIR" INDICATES FEW OR NO CLOUDS BELOW 12,000 FEET WITH NO
SIGNIFICANT WEATHER AND/OR OBSTRUCTIONS TO VISIBILITY.

NOTE: STATIONS NOT REPORTING VARIABLES SUCH AS SKY/WEATHER OR
PRESSURE ARE PROVIDED BY RAWS AND APRS NETWORKS AND ARE NOT UNDER
NATIONAL WEATHER SERVICE QUALITY CONTROL.

...OBSERVATIONS IN AND NEAR THE EASTERN PANHANDLE OF NEBRASKA...

CITY           SKY/WX    TMP DP  RH WIND       PRES   REMARKS
PINE RIDGE     CLOUDY    54  51  90 CALM      29.96S
CHADRON        CLOUDY    52  48  86 W6        29.97R
ALLIANCE       CLOUDY    58  53  84 S13       30.03R
SIDNEY         CLOUDY    56  51  84 S13       30.08S
CRESCENT LAKE    N/A     60  52  74 S14G22      N/A
BIG SPRINGS      N/A     63  53  71 S20         N/A
$$

...OBSERVATIONS IN NORTHERN NEBRASKA AND FAR SOUTHERN SOUTH DAKOTA...

CITY           SKY/WX    TMP DP  RH WIND       PRES   REMARKS
WINNER         FAIR      65  56  72 SE13      29.97F
VALENTINE      CLOUDY    65  51  60 S8        30.00F
THEDFORD       CLOUDY    65  50  57 S14       30.04S
AINSWORTH      RAIN      64  53  67 SW17G25   30.02F
O`NEILL        CLOUDY    68  59  74 S6        30.01R
ORD            CLOUDY    68  59  73 S10       30.00S
BROKEN BOW     CLOUDY    60  56  86 CALM      30.03R
BUTTE            N/A     62  58  86 SE14        N/A
CHAMBERS         N/A     67  60  79 S3          N/A
EWING            N/A     65  59  81 S5          N/A
$$

...OBSERVATIONS IN SOUTHWEST NEBRASKA AND FAR NORTHEAST COLORADO...

CITY           SKY/WX    TMP DP  RH WIND       PRES   REMARKS
WRAY           FAIR      61  50  67 E14G21    30.11F
HOLYOKE        FAIR      61  52  72 S20G29    30.08R
IMPERIAL       LGT RAIN  60  52  74 S8        30.13F
OGALLALA       LGT RAIN  60  53  77 SE15      30.08F
NORTH PLATTE   CLOUDY    61  53  75 W8        30.07R
MCCOOK         CLOUDY    64  52  64 SE8       30.07R
LEXINGTON      CLOUDY    65  51  59 S10       30.05R
PAXTON           N/A     63  54  73 S6          N/A
STAPLETON        N/A     60  53  77 CALM        N/A
GOTHENBURG       N/A     67  49  52 S3          N/A
CALLAWAY         N/A     60  54  80 CALM        N/A
$$

...OBSERVATIONS IN CENTRAL LINCOLN COUNTY AREA...

CITY           SKY/WX    TMP DP  RH WIND       PRES   REMARKS
N.P. AIRPORT   CLOUDY    61  53  75 W8        30.07R
N.P. DOWNTOWN    N/A     64  54  69 CALM        N/A
N.P. HILLCREST   N/A     63  53  69 W9          N/A
$$

...SOME OBSERVATIONS FROM AROUND THE REGION...

CITY           SKY/WX    TMP DP  RH WIND       PRES   REMARKS
DENVER         PTCLDY    54  43  66 S10       30.11F
LARAMIE        CLOUDY    44  38  79 SW10      30.16F
CHEYENNE       CLOUDY    51  40  65 SW10      30.12F
SCOTTSBLUFF    CLOUDY    59  44  57 SE9       30.03S
RAPID CITY     CLEAR     55  52  89 N8        29.97F
BISMARCK       CLEAR     56  50  80 SE6       29.96S
PIERRE         CLOUDY    58  54  86 E8        29.95F
SIOUX FALLS    CLOUDY    55  51  86 NE5       30.00F
OMAHA          CLOUDY    73  61  65 SE7       30.00F
GRAND ISLAND   MOCLDY    69  51  52 SW18      30.04S
KANSAS CITY    CLOUDY    67  59  75 S7        30.06R
WICHITA        MOCLDY    65  59  81 S3        30.04F
OKLAHOMA CITY  CLOUDY    67  61  81 NE13      30.07R
DALLAS         CLOUDY    72  63  73 E6        30.01F
AMARILLO       CLOUDY    53  51  93 SW8       30.09F
DODGE CITY     MOCLDY    59  50  72 SW10      30.07F
HAYS           CLOUDY    61  52  72 CALM      30.04F
GOODLAND       LGT RAIN  57  52  83 E9        30.14R
$$




USA.gov is the U.S. government's official web portal to all federal, state and local government web resources and services.